Lid_Strength_Index
2 2 2 2 1 1 1 1 1 1 1 1 1 1 1 1 1 1 1 1 1 1 1 1 2 1 2 1 1 1 2 2 4 3 2 1 1 1 0 0 -0 -0 2
2 2 2 2 2 2 1 1 1 1 1 1 1 1 1 1 1 1 1 1 2 2 2 2 2 1 2 1 1 2 2 2 3 4 3 2 2 1 0 1 0 -0 1
2 2 2 2 2 2 1 1 1 1 1 1 1 1 1 1 1 1 1 1 1 1 1 2 2 2 2 2 2 2 2 2 2 3 3 2 1 1 1 1 1 1 1
2 2 2 2 2 2 1 1 1 1 1 1 1 1 1 1 1 1 1 1 1 1 1 1 1 1 2 2 2 2 2 2 2 3 3 3 2 2 2 2 3 2 3
2 2 2 2 1 1 1 1 1 1 1 1 1 1 1 1 1 1 1 1 1 1 1 1 1 2 3 2 1 2 2 2 3 3 3 3 3 3 4 3 3 3 3
2 2 2 2 2 2 1 1 1 1 1 1 1 1 1 1 7 4 1 1 1 1 2 1 1 3 3 3 2 3 2 2 3 3 3 4 3 3 3 4 4 3 5
2 2 2 2 2 2 1 1 2 2 1 1 1 1 1 2 9 7 5 1 1 1 1 1 1 1 2 1 4 5 4 4 3 2 3 3 3 3 3 3 4 3 4
2 2 2 2 2 2 2 2 2 1 2 2 1 1 1 3 9 8 7 1 1 1 1 1 1 1 1 1 1 1 1 1 1 1 1 1 1 2 2 3 3 3 3
2 2 2 2 2 2 2 2 2 2 2 2 1 1 1 1 9 8 6 1 1 1 1 1 1 1 8 8 1 2 2 4 7 8 9 8 7 7 4 3 4 4 5
2 2 1 1 2 2 2 2 2 1 2 1 2 1 3 1 8 8 6 1 2 2 1 1 8 3 9 9 1 2 3 3 3 3 4 6 5 5 6 2 3 4 5
1 1 1 1 2 2 2 1 1 2 2 2 2 1 1 1 4 8 8 1 2 2 2 2 3 10 10 10 8 1 2 2 4 3 3 4 3 3 2 3 1 3 4
1 1 2 2 1 2 2 2 2 2 2 2 2 2 1 1 5 8 8 9 7 2 2 1 5 10 10 10 6 11 9 4 2 3 4 4 4 4 3 3 2 2 1
2 2 2 1 1 1 2 2 2 2 2 3 3 3 2 1 2 9 9 8 8 1 3 7 10 11 11 9 10 9 8 2 3 4 5 4 4 3 3 3 2 2 2
2 2 2 2 2 2 2 2 2 2 3 3 3 3 2 2 2 1 1 3 6 5 7 5 7 7 8 8 7 6 2 2 3 4 4 4 3 4 4 3 4 3 3
2 2 2 2 2 3 6 6 2 5 2 2 2 2 3 3 2 4 3 1 1 4 4 3 2 3 4 5 4 3 2 2 3 3 4 4 4 4 4 3 3 3 3
2 2 2 2 2 2 2 3 13 13 13 13 10 3 3 8 10 10 10 10 10 9 3 3 4 4 5 5 4 4 3 2 2 2 3 3 3 4 4 3 3 3 3
2 2 2 3 3 3 3 3 3 6 12 12 12 9 7 11 11 11 11 11 11 7 3 3 4 4 5 5 4 3 3 2 2 2 2 2 3 2 4 4 3 3 2
2 6 2 2 2 2 2 2 2 3 3 3 10 9 12 12 12 11 11 9 4 5 2 4 4 4 4 4 4 3 2 2 2 2 2 2 2 2 3 3 3 2 3
2 2 2 2 2 2 2 2 2 2 2 2 3 7 11 12 12 12 11 2 2 3 3 3 3 3 3 3 3 2 2 2 1 1 2 2 2 2 2 2 2 8 6
2 5 5 2 2 2 2 2 2 2 3 3 2 2 4 4 3 3 3 2 2 2 2 2 2 2 2 2 3 3 3 4 2 2 2 2 1 1 2 2 2 2 2
2 2 8 2 2 2 2 2 2 2 2 2 2 2 8 2 2 2 2 2 2 2 1 2 2 1 1 1 1 2 2 2 2 1 1 1 1 2 1 1 2 2 2
2 2 2 2 2 2 2 1 1 2 2 2 2 5 11 1 2 2 2 2 1 1 1 1 1 1 1 1 1 1 1 1 1 1 1 1 1 1 1 1 2 2 2
2 2 2 2 2 4 2 2 2 1 2 2 2 3 3 2 1 1 1 1 1 1 0 0 1 1 0 0 0 0 1 1 1 0 1 1 1 1 1 2 2 2 2
2 2 2 2 2 2 2 2 2 6 2 2 2 2 2 1 2 2 1 1 1 0 2 3 4 8 5 6 7 8 10 10 5 0 0 1 1 2 1 1 2 2 2
4 4 4 4 3 3 2 2 3 4 4 4 2 2 2 3 4 4 3 4 5 6 7 9 9 9 11 11 12 12 15 16 11 14 2 1 1 1 2 2 2 2 2
7 7 8 7 8 8 7 8 8 7 8 8 8 7 5 5 6 7 7 7 7 7 8 9 11 12 12 13 14 17 17 16 13 15 5 0 1 1 1 1 1 2 2